Temp
16 15 15 15 15 15 15 15 15 15 15 15 15 15 15 15 15 15 14 14 14 14 14 14 13 13 13 13 13 13 13 13 13 12 12 12 12 12 12 13 12 13 12 12 12 12 12 12 12 12 12 12 12 12 12 12 12 13 13 13 13 13 13
16 15 15 15 15 15 15 14 14 14 14 14 14 14 14 14 14 14 14 13 13 13 13 13 13 13 13 13 13 12 12 12 12 12 12 12 11 11 11 11 11 11 11 11 11 11 11 11 11 11 11 11 11 11 11 11 11 12 12 12 12 12 12
16 15 15 15 15 15 14 14 14 14 14 14 13 13 13 13 13 13 13 13 13 13 12 13 13 13 12 12 12 12 12 12 12 11 11 11 11 11 11 10 10 10 10 10 10 10 11 10 10 10 10 10 10 10 10 10 11 11 12 12 11 11 11
16 15 14 14 14 14 14 13 13 13 13 13 13 12 12 12 12 12 12 12 12 12 12 12 12 12 12 12 12 12 11 11 11 11 11 11 11 10 10 10 10 9 9 9 9 9 9 9 9 9 9 9 9 10 10 9 10 10 11 11 10 10 10
16 15 14 13 13 13 13 13 13 13 12 12 12 12 12 12 12 12 12 12 12 12 12 12 12 12 11 12 11 11 11 11 11 11 11 11 10 10 9 9 9 9 8 8 8 8 7 8 8 7 8 8 8 9 9 9 9 9 10 10 9 9 9
16 15 14 13 13 13 13 13 13 12 12 12 11 11 11 11 11 11 11 11 11 11 11 11 11 11 11 11 11 11 11 11 11 11 10 10 10 9 9 9 9 8 7 7 7 7 7 7 6 6 6 7 7 7 8 8 8 8 9 9 8 8 7
15 14 14 13 13 13 13 13 13 12 12 11 11 11 11 11 11 11 11 11 11 11 11 11 11 11 11 11 11 11 11 11 10 10 10 9 9 9 9 8 8 7 7 7 7 6 6 6 6 6 6 6 6 7 7 7 7 7 7 7 7 7 7
15 14 13 13 13 13 13 13 12 12 12 11 11 11 11 11 11 11 11 11 11 11 11 11 11 11 11 11 11 10 10 10 10 9 9 9 8 8 8 7 7 6 6 6 6 6 6 6 6 6 5 5 5 6 6 6 6 7 7 7 6 6 6
14 14 13 13 13 13 13 13 12 12 12 11 11 11 11 11 11 11 11 11 11 11 10 11 11 11 10 10 10 10 10 10 9 9 9 8 8 7 7 7 6 6 5 5 5 5 5 5 5 5 5 5 5 5 5 6 6 6 6 6 6 6 5
14 13 13 13 13 13 13 12 12 12 11 11 11 11 11 10 10 10 10 10 10 10 10 10 10 10 10 10 10 10 10 9 9 8 8 8 7 7 6 6 5 5 5 5 5 5 5 5 5 4 5 5 5 5 5 4 5 5 5 5 5 5 4
13 13 12 13 13 12 12 12 12 11 11 11 11 11 10 10 10 10 10 10 10 10 10 10 10 10 10 10 10 9 9 9 8 8 8 7 7 7 6 6 5 5 5 5 4 4 4 4 4 4 4 4 4 4 4 4 4 5 5 4 4 4 4
12 12 12 12 12 12 12 12 11 11 11 11 11 10 10 10 10 10 10 10 10 10 10 10 10 10 10 9 9 9 9 9 8 7 7 7 7 6 6 5 5 5 5 4 4 4 4 3 3 3 3 3 4 4 4 4 4 4 4 4 4 4 4
12 12 12 12 12 12 12 11 11 11 11 11 10 10 10 10 10 10 10 10 9 9 9 9 9 9 9 9 9 9 9 8 8 7 7 7 6 6 6 5 5 5 5 4 4 4 3 3 3 3 3 3 3 3 3 4 4 4 4 4 4 4 4
12 12 12 12 12 11 11 11 11 11 10 10 10 10 10 10 10 9 9 9 9 9 9 9 9 9 9 9 9 9 8 8 7 7 7 6 6 6 6 5 5 5 5 4 4 4 3 3 2 2 2 3 3 3 3 3 4 4 4 4 4 4 5
11 11 11 11 11 11 11 11 11 10 10 10 10 10 9 9 9 9 9 9 9 9 9 9 9 9 9 9 9 8 8 8 7 7 7 6 6 6 6 5 5 5 5 4 4 4 3 3 3 2 2 3 3 3 3 3 3 4 4 4 4 4 5
11 11 11 11 11 11 11 11 10 10 10 9 9 9 9 9 9 9 9 9 9 9 9 9 9 9 9 9 8 8 8 8 7 7 7 6 6 6 6 5 5 5 5 4 4 4 4 4 3 3 3 3 3 3 3 3 3 3 4 4 4 4 4
11 11 11 11 11 11 10 10 10 10 9 9 9 9 9 9 10 10 9 9 9 9 9 9 9 9 9 8 8 8 8 8 7 7 7 6 6 6 6 5 5 5 5 4 4 4 4 4 4 4 3 3 3 3 3 3 3 3 3 3 4 4 4
11 11 11 11 11 10 10 10 10 9 9 9 9 9 9 9 10 10 9 8 8 9 9 9 9 8 8 8 8 8 8 8 7 7 7 6 6 6 6 6 5 5 5 5 5 4 4 4 4 4 4 3 3 3 3 3 3 3 3 3 4 4 4
11 11 11 11 10 10 10 10 9 9 9 9 9 9 9 9 9 9 9 8 8 8 8 8 8 8 8 8 8 8 7 7 7 7 7 6 6 6 6 6 6 5 5 5 5 5 5 5 4 4 4 4 4 3 4 4 4 4 3 4 4 4 4
11 11 11 11 10 10 10 9 9 9 9 9 9 9 9 9 9 9 8 8 8 8 8 8 8 8 8 8 8 8 7 7 7 7 7 6 6 6 6 6 6 6 5 5 5 5 5 5 5 5 4 4 4 4 4 4 4 4 4 4 4 4 4
11 11 10 10 10 10 9 9 9 9 9 9 9 9 9 9 9 8 8 8 8 8 8 8 8 8 8 8 8 8 7 7 7 7 7 6 6 6 6 6 6 6 5 5 5 5 5 5 5 5 5 5 4 4 4 4 4 4 4 4 4 4 4
11 10 10 10 10 10 9 9 9 9 9 9 8 8 8 9 9 8 8 7 7 8 8 8 8 8 8 8 8 8 8 7 7 7 7 6 6 6 6 6 6 6 6 6 6 6 6 5 5 5 5 5 5 4 4 4 4 4 3 3 4 4 4
10 10 10 10 10 9 9 9 9 8 8 8 8 8 8 8 8 8 8 7 7 8 8 8 8 8 8 8 8 8 8 7 7 7 7 6 6 6 6 6 6 6 6 6 6 6 6 6 6 6 6 5 5 5 4 4 4 4 3 3 3 3 3
10 10 10 10 10 9 9 9 8 8 8 8 8 8 8 8 8 8 8 7 7 7 7 7 8 8 8 8 8 8 8 7 7 7 7 7 6 6 6 6 6 6 6 6 6 6 6 6 6 6 6 6 6 6 5 4 4 4 3 3 3 3 3
10 10 10 9 9 9 9 8 8 8 8 8 7 8 8 8 8 8 8 7 7 7 7 7 7 7 8 8 8 8 8 7 7 7 7 6 6 6 6 6 6 6 6 6 6 6 6 6 7 7 7 7 7 6 6 5 4 4 4 3 3 3 3
10 10 9 9 9 9 9 8 8 8 8 7 7 7 7 7 7 7 8 7 7 7 7 7 7 7 8 8 8 8 8 7 7 7 7 6 6 6 6 6 6 6 6 6 6 6 6 6 7 7 7 7 7 7 6 6 6 5 5 4 3 3 4
9 9 9 9 9 9 8 8 8 8 7 7 7 7 7 7 7 7 7 7 7 7 7 7 7 7 7 7 7 7 7 7 7 7 6 6 6 6 6 6 6 6 6 6 6 6 6 6 7 7 6 6 7 6 6 6 6 5 5 5 4 4 4
9 9 9 9 9 8 8 8 8 8 7 7 7 7 7 7 7 7 7 7 7 7 6 6 7 7 7 7 7 7 7 7 7 6 6 6 6 6 6 6 6 6 6 6 6 6 6 7 7 7 6 6 6 6 6 6 5 5 5 5 5 5 5
9 9 9 9 8 8 8 8 7 7 7 7 7 7 7 6 6 6 6 7 7 6 6 6 7 7 7 7 7 7 7 7 6 6 6 6 6 6 6 6 6 6 6 6 7 6 6 7 7 6 6 6 6 6 6 5 5 5 5 5 5 5 5
9 8 8 8 8 8 8 8 7 7 7 7 7 7 7 7 6 6 6 6 7 6 6 6 6 6 6 6 7 7 7 6 6 6 6 6 6 6 6 6 6 6 7 7 7 6 7 7 7 6 6 6 6 6 5 5 5 6 6 5 5 5 5
8 8 8 8 8 8 8 8 7 7 7 7 7 7 7 7 6 6 6 6 6 6 6 6 6 6 6 6 6 6 6 6 6 6 6 6 6 6 6 6 6 6 7 7 7 7 7 7 6 6 6 5 5 5 5 5 5 5 5 5 5 5 5
8 8 8 8 8 8 7 7 7 7 7 7 7 7 7 7 6 6 6 6 6 6 6 6 6 6 5 5 6 6 6 7 7 6 7 7 7 7 7 7 7 7 7 7 7 7 7 7 6 6 6 5 5 5 5 5 5 5 5 5 5 4 5
8 8 8 8 8 8 8 7 7 7 7 7 7 7 7 7 6 6 6 6 6 6 6 6 6 5 5 5 5 6 6 6 6 6 6 7 7 7 7 7 7 7 7 7 7 7 7 7 6 6 6 5 5 5 5 5 5 5 4 4 4 4 4
9 8 8 8 8 8 8 8 8 8 7 7 7 7 7 7 7 6 6 6 6 6 6 6 6 5 5 5 5 5 6 6 6 6 6 7 7 7 7 7 7 7 7 7 7 7 7 7 6 6 6 5 5 5 5 5 5 5 4 4 4 4 4
9 9 9 8 8 8 8 8 8 8 8 8 8 7 7 7 6 6 6 6 6 6 6 6 6 6 5 5 5 5 6 6 6 6 7 7 7 7 7 7 7 7 7 7 7 7 7 6 6 6 6 5 5 5 5 5 5 5 4 4 4 3 4
9 9 9 9 9 8 8 8 8 8 8 8 8 8 7 7 6 6 6 6 6 6 6 6 6 6 6 6 6 6 6 6 6 7 7 7 7 7 7 7 7 7 7 7 7 7 6 6 6 6 5 5 5 5 5 5 4 4 4 4 3 3 3
9 9 9 9 9 9 9 8 8 8 8 8 8 8 7 7 7 6 6 6 6 6 6 6 6 6 6 6 6 6 6 6 7 7 7 7 7 7 7 8 7 7 7 7 7 7 6 6 6 5 5 5 5 4 4 4 4 4 3 3 3 3 3
Height
826 828 830 831 832 832 832 833 833 833 834 834 834 834 834 834 834 834 835 836 837 838 837 836 836 835 835 836 836 836 836 837 837 837 837 837 837 837 837 836 836 836 836 835 835 834 833 828 822 819 820 820 821 821 820 819 817 815 813 812 810 807 804
827 828 830 831 832 832 832 833 833 834 835 836 835 835 835 835 836 836 837 838 838 838 837 836 836 836 836 837 837 838 838 838 839 839 839 839 840 839 838 837 837 837 837 837 836 835 835 834 828 824 820 818 818 820 820 819 818 816 814 812 810 808 805
827 828 829 830 831 832 832 833 834 836 837 837 836 836 837 837 838 838 838 839 839 838 838 837 837 837 838 839 839 840 840 840 840 840 841 841 841 840 840 839 839 839 839 838 838 837 836 836 834 830 826 822 819 818 819 820 818 816 814 812 810 808 805
827 828 829 830 831 832 833 835 836 837 838 838 838 838 839 839 840 840 840 840 840 839 839 838 839 839 840 841 841 842 842 842 842 842 842 842 842 841 841 841 841 841 841 841 841 840 838 837 836 833 831 828 824 819 818 819 819 817 815 813 810 808 805
826 827 828 829 831 832 834 836 837 838 838 839 839 840 841 841 841 841 841 841 841 840 840 840 841 842 842 843 843 843 843 843 843 843 843 843 842 842 842 842 843 842 842 843 842 841 840 839 838 836 833 830 826 822 820 819 818 817 815 813 811 809 806
826 827 827 829 831 833 834 836 837 838 839 840 841 841 842 842 842 842 842 842 842 842 842 842 843 844 844 845 845 845 845 845 845 844 843 843 844 844 844 844 844 844 843 843 842 841 841 839 838 836 834 832 828 824 821 819 817 816 815 814 812 809 807
826 826 827 829 831 833 835 836 837 838 839 841 842 842 843 844 844 844 844 844 844 844 844 844 845 846 846 846 846 846 846 847 846 845 845 845 845 846 846 846 846 845 845 845 844 842 841 840 839 838 835 832 829 825 822 820 818 816 814 813 812 809 807
826 826 828 829 831 833 835 836 838 839 840 842 843 843 844 845 845 845 845 845 845 845 846 846 847 847 848 847 848 848 848 848 847 846 847 847 848 848 848 848 848 847 847 846 845 844 843 842 841 840 838 834 831 826 822 820 819 818 815 812 811 809 807
826 827 828 831 832 834 836 837 838 840 841 843 844 845 846 846 846 846 846 846 847 847 847 848 849 849 849 849 849 849 849 849 848 848 849 849 850 850 850 850 849 849 849 848 846 845 844 843 842 841 840 838 836 831 825 820 818 817 815 812 809 807 806
828 829 830 831 833 835 836 837 838 840 842 844 845 846 846 847 847 847 848 848 848 849 849 850 850 851 851 850 850 850 850 850 850 850 851 851 852 852 852 852 851 851 850 849 848 846 845 844 843 842 840 840 839 837 833 827 821 817 816 813 810 806 804
829 830 831 833 834 836 836 838 839 842 844 845 846 847 847 848 849 849 849 849 850 850 851 851 852 852 852 852 851 851 851 851 852 852 853 854 854 854 854 853 853 852 851 850 848 847 846 844 843 842 841 840 839 839 838 835 827 822 818 815 812 808 804
831 832 833 834 835 835 837 838 841 843 844 846 847 848 849 849 850 850 850 851 851 852 852 853 853 853 853 852 852 852 853 853 853 854 855 856 856 856 855 854 853 852 851 850 848 847 845 844 843 842 841 840 840 839 838 837 832 826 822 817 813 810 806
832 833 834 834 835 836 838 840 842 844 845 847 848 849 850 850 850 851 851 852 853 853 854 854 854 853 853 853 853 854 855 855 855 856 857 857 857 857 856 855 854 853 852 850 848 847 845 844 843 842 841 840 840 839 838 837 833 827 824 821 815 810 807
832 833 834 835 835 837 839 841 843 845 847 848 849 850 850 851 851 852 852 853 854 854 854 854 854 854 853 854 855 855 856 856 857 857 858 858 858 858 857 856 855 854 852 850 848 847 845 844 843 842 842 841 840 840 837 836 833 828 823 821 817 811 807
833 834 835 836 837 839 841 843 844 846 847 849 850 850 851 851 851 852 853 853 854 854 854 854 854 854 854 855 856 857 857 857 858 859 859 859 859 859 858 857 856 855 853 851 850 848 846 845 844 843 842 841 840 839 837 835 833 829 824 820 816 811 807
834 835 836 837 839 841 842 844 846 847 848 850 850 851 851 851 852 852 852 853 853 854 854 854 855 855 856 856 857 857 858 858 859 859 860 860 860 860 859 858 857 856 854 852 850 849 848 846 845 844 842 841 840 838 836 835 832 829 825 820 815 811 807
835 836 837 839 840 842 844 845 846 848 849 850 851 851 852 851 851 851 851 852 853 854 855 855 856 856 857 857 858 858 859 859 860 860 861 861 861 860 860 858 858 857 855 853 851 850 849 847 845 844 842 841 840 838 836 834 831 828 825 820 815 812 808
835 837 838 840 842 843 844 845 847 848 850 851 851 851 851 851 851 851 851 852 853 854 855 856 857 857 858 858 859 859 860 860 861 861 861 861 861 861 860 859 858 857 855 853 852 850 849 848 846 844 843 841 839 837 834 832 830 827 824 820 815 812 809
836 837 839 841 842 844 845 846 848 849 850 851 851 851 851 851 851 851 852 853 854 855 856 857 857 858 859 859 860 860 861 861 861 862 862 862 862 861 861 860 858 857 856 854 852 851 849 848 846 844 842 840 838 836 833 830 828 825 823 819 815 811 808
837 838 840 841 843 844 846 847 848 849 850 850 851 851 850 851 851 852 852 853 855 856 857 857 858 859 859 860 861 861 861 862 862 862 863 863 863 862 861 860 859 857 856 855 853 851 850 848 846 844 841 839 837 834 832 829 827 824 821 818 815 811 807
838 839 841 842 844 845 846 848 848 849 850 851 851 851 851 851 852 852 853 854 855 856 857 858 858 859 860 861 862 862 862 862 863 863 863 863 863 862 861 860 859 858 857 855 854 852 850 848 845 843 841 839 836 833 831 828 825 823 820 817 814 810 806
839 841 842 843 844 845 846 848 849 850 851 851 851 852 852 852 853 853 854 855 856 857 857 858 859 860 861 862 862 863 863 863 863 864 864 864 863 863 862 861 860 859 857 856 854 852 850 848 845 843 840 838 835 833 830 827 825 822 820 817 813 809 806
840 841 842 843 844 845 846 848 849 850 851 852 852 853 853 853 854 854 855 856 857 857 858 859 860 861 862 863 863 863 863 863 864 864 864 864 864 863 862 861 860 859 858 856 854 852 849 847 845 842 840 837 835 832 829 826 824 821 819 816 812 809 805
841 842 843 843 844 845 847 848 850 851 852 852 853 853 854 854 854 855 856 856 857 858 859 861 862 862 863 863 863 863 863 863 864 864 864 864 864 863 862 861 860 859 857 855 853 851 849 846 844 842 840 837 834 832 829 826 823 820 818 815 812 808 805
841 842 843 844 845 846 848 849 850 851 852 853 854 854 854 855 855 856 857 857 858 859 861 862 863 863 863 864 864 863 863 863 863 864 864 864 864 864 863 862 860 859 857 855 853 851 848 846 843 841 839 836 834 832 829 826 823 820 817 814 811 807 804
841 843 844 844 846 847 848 850 851 852 852 854 854 855 855 856 856 857 858 858 859 861 862 863 863 864 864 864 864 863 863 864 864 864 865 865 864 864 863 862 860 858 857 855 852 850 847 845 842 840 838 835 833 831 828 826 823 820 817 814 811 807 803
842 843 844 845 846 848 849 850 851 852 853 854 855 856 857 857 858 858 859 860 861 862 863 863 864 864 864 864 864 864 864 864 864 865 865 865 864 864 863 861 859 858 856 854 852 849 847 844 842 839 837 834 832 829 827 825 822 819 816 814 810 807 803
842 843 844 846 847 848 849 850 852 853 854 855 856 857 858 858 859 860 860 861 862 863 863 864 864 864 864 864 864 864 864 864 864 865 865 865 864 864 862 861 859 857 855 853 851 849 846 844 841 839 836 834 831 829 826 824 821 818 815 813 810 806 802
841 843 844 846 847 849 850 851 852 853 854 856 857 857 859 859 860 861 862 862 863 863 864 864 864 864 864 864 864 864 864 864 864 865 865 865 864 863 862 860 859 857 855 853 851 849 846 844 842 839 836 833 831 828 826 823 821 818 815 812 808 805 801
841 842 844 846 847 849 850 851 852 852 854 855 857 858 859 860 861 862 863 864 864 864 865 865 865 864 864 864 864 864 865 865 865 865 865 864 864 863 861 860 858 857 854 852 850 848 846 844 841 839 836 833 830 828 825 822 819 817 814 810 807 803 799
840 842 844 846 847 849 850 851 852 853 854 855 857 858 860 861 862 863 864 865 865 865 865 865 865 864 864 864 864 864 864 865 864 865 864 864 863 862 861 859 858 856 854 852 850 848 846 844 841 838 835 833 830 827 824 821 818 815 812 808 805 801 797
839 841 844 846 847 848 849 851 852 853 854 855 857 858 860 861 863 864 865 865 866 866 866 865 865 865 864 864 864 864 864 864 864 864 864 863 862 861 860 859 857 856 854 852 850 848 846 844 841 839 836 833 830 827 824 821 818 814 811 807 803 799 795
840 842 844 846 847 848 850 851 852 853 855 856 857 858 860 861 863 864 865 866 866 866 866 865 865 865 865 865 865 864 864 864 864 864 864 863 862 860 859 858 856 855 854 852 850 848 846 844 842 839 836 833 831 828 825 822 818 815 811 807 803 799 794
840 842 844 846 847 849 850 851 852 853 854 856 857 858 860 862 863 864 865 866 866 866 866 865 866 866 866 865 865 865 864 864 864 864 863 862 861 860 858 857 856 855 853 852 850 848 846 844 842 840 837 834 832 829 826 822 818 815 811 807 803 799 794
840 843 845 846 847 848 850 851 852 853 854 856 857 859 860 862 863 864 865 866 866 866 866 866 866 866 866 865 865 864 864 864 864 863 862 862 860 859 858 857 856 855 853 852 850 848 846 844 842 840 837 835 833 829 826 822 819 815 811 807 803 799 795
841 843 844 845 847 848 849 851 852 853 854 856 857 859 860 862 863 864 865 866 866 866 866 866 866 866 865 865 865 864 864 864 863 863 862 861 860 859 858 857 856 855 853 852 850 849 846 844 842 840 838 835 832 829 825 822 819 815 811 808 804 800 795
841 842 843 845 846 847 849 850 852 853 854 856 857 858 860 861 862 863 865 865 865 866 866 866 866 865 865 865 864 864 864 864 863 863 862 861 860 859 858 857 856 855 853 852 850 849 847 845 842 840 838 835 832 829 825 822 819 815 812 808 804 800 796
Wind_Speed
23 22 21 21 20 19 17 15 13 12 11 9 9 9 8 8 7 7 7 7 7 8 8 9 11 12 13 13 12 13 14 15 15 16 17 16 14 14 13 13 13 13 13 14 12 7 4 4 9 14 17 23 20 14 21 25 24 24 23 24 23 21 24
24 24 22 21 20 17 16 15 13 12 11 10 9 8 8 8 7 7 7 7 9 10 10 11 12 12 13 13 13 14 16 18 17 17 18 18 18 17 16 17 16 15 14 15 17 13 6 4 6 8 17 25 19 14 20 24 23 22 21 23 23 22 24
25 24 22 21 20 17 17 16 14 12 11 10 10 9 9 8 8 9 9 10 11 11 12 13 13 13 13 14 15 16 17 18 17 17 18 18 19 20 20 20 19 16 13 12 15 14 9 6 5 7 13 18 17 17 21 24 23 19 20 23 23 24 26
26 24 23 22 20 18 18 17 15 14 13 12 11 11 11 10 10 10 11 12 13 13 14 14 14 15 15 16 16 16 17 18 18 18 19 18 20 22 22 23 21 19 16 13 13 14 10 7 6 6 11 16 16 18 22 24 21 17 19 21 23 25 27
25 23 23 22 20 20 19 18 17 16 16 15 14 14 12 11 11 12 13 13 14 15 15 16 16 16 16 16 17 17 18 19 19 19 19 19 21 23 24 24 23 22 22 18 17 17 15 12 10 6 10 16 13 15 22 23 19 18 17 19 23 25 27
23 23 23 22 21 20 19 18 18 17 16 16 15 15 13 12 13 14 14 15 15 15 15 16 16 15 16 16 18 19 19 19 19 20 21 22 22 23 23 22 22 23 23 21 20 20 19 17 15 10 11 15 11 14 21 20 19 18 14 17 23 24 27
24 23 23 22 21 20 18 18 18 17 17 16 16 15 13 12 14 15 15 16 16 16 16 16 16 16 16 17 19 20 20 19 19 21 23 23 23 22 22 22 23 23 22 21 20 21 21 19 17 13 12 13 11 13 17 18 18 16 13 19 23 23 27
24 23 23 22 21 19 18 18 18 17 17 16 15 14 13 13 14 15 15 16 16 16 16 16 17 17 17 18 19 20 20 19 20 22 23 22 23 23 22 21 22 22 22 21 20 21 20 19 18 17 14 10 8 9 12 13 14 14 17 24 23 20 27
24 24 23 22 19 18 18 18 18 17 16 16 15 14 14 13 14 15 16 16 16 16 16 16 17 18 18 19 20 20 21 20 21 23 22 23 23 23 22 22 22 22 22 21 21 20 20 18 17 17 16 12 8 7 8 9 9 11 19 26 23 22 29
23 23 23 21 19 18 18 17 17 17 16 15 15 15 14 14 15 15 16 18 17 17 18 17 18 18 19 20 21 21 21 20 22 23 22 23 23 22 23 24 23 22 21 21 21 20 19 18 17 16 15 14 10 7 5 7 7 9 19 26 24 27 34
22 22 21 20 20 20 19 18 18 17 16 16 16 15 15 15 15 16 17 19 19 19 19 19 19 19 19 21 21 21 20 19 21 23 22 23 23 23 25 25 24 22 21 21 21 20 19 18 17 16 14 13 11 8 6 7 7 10 21 27 26 30 36
20 20 19 20 20 20 20 20 20 19 18 17 16 15 14 14 15 16 17 19 20 20 20 20 20 20 20 21 21 21 20 19 21 23 22 22 22 23 25 25 25 24 23 22 22 21 20 18 17 17 15 14 13 10 9 8 7 10 20 26 28 32 35
17 17 19 20 20 21 22 22 21 20 19 17 16 15 14 14 14 16 17 19 20 21 21 21 21 21 21 21 20 21 19 19 21 22 22 21 21 23 25 25 25 25 24 24 23 22 21 19 18 17 16 15 14 12 12 10 8 13 19 22 27 32 34
17 20 21 22 23 24 23 22 22 21 20 18 16 14 13 12 13 15 17 18 19 20 21 21 21 20 21 21 20 20 19 20 21 21 21 21 21 23 25 25 24 25 25 25 25 24 23 22 21 19 17 15 14 14 13 12 11 15 20 22 24 30 33
22 24 24 24 25 25 24 23 23 22 20 18 15 13 12 12 12 14 17 18 19 20 20 20 20 20 22 22 20 19 18 19 20 20 20 20 20 21 24 24 24 24 25 26 25 24 24 23 22 20 17 15 14 16 16 15 14 15 19 23 25 28 31
23 23 24 25 25 25 25 24 22 21 20 17 14 13 13 14 14 16 18 19 19 19 19 19 20 21 21 21 20 19 17 18 18 18 19 19 18 19 22 23 23 23 25 26 25 24 23 23 22 20 18 16 16 17 18 17 15 15 17 21 24 26 28
23 24 25 25 25 25 25 24 22 21 19 17 15 15 15 15 16 17 19 20 19 19 19 19 19 20 20 20 19 18 17 17 17 17 17 17 17 17 19 21 21 22 25 25 25 24 23 22 22 21 19 18 17 17 18 17 16 16 17 19 21 23 25
25 25 25 25 25 25 24 23 23 20 18 17 17 17 17 16 17 18 19 20 19 18 18 18 18 19 19 19 18 17 17 16 15 16 16 16 15 15 17 18 19 21 23 24 24 24 22 21 21 20 20 19 18 18 18 18 17 18 18 19 20 22 24
24 24 25 25 25 24 24 24 22 19 18 18 18 18 17 17 17 18 19 19 19 18 18 17 18 18 18 18 17 16 15 14 14 14 15 15 13 13 15 16 17 20 22 22 22 22 22 21 20 19 19 19 18 18 18 19 18 18 18 19 20 22 25
24 25 25 25 24 24 24 23 21 19 17 17 18 18 18 18 18 18 19 19 18 18 17 17 17 17 16 16 15 14 13 12 11 13 14 13 11 12 15 16 15 18 19 20 21 21 21 21 20 19 19 18 18 18 18 19 19 19 19 20 21 22 24
25 25 26 25 25 25 24 22 21 19 17 17 17 17 17 18 18 18 18 18 18 17 17 16 16 16 15 14 13 12 11 9 9 11 13 12 10 12 15 16 15 16 17 18 19 20 20 21 20 20 19 18 18 18 19 20 20 20 20 20 21 22 24
25 25 26 25 25 25 24 23 21 18 17 17 17 17 17 17 17 18 18 18 17 17 16 16 15 15 14 13 12 11 10 8 8 10 11 10 10 13 15 15 15 16 17 18 19 19 20 20 21 21 21 20 19 20 20 22 22 22 20 19 21 22 22
26 26 26 25 25 26 25 24 21 19 18 18 18 17 17 16 16 17 17 17 17 16 16 15 14 13 12 11 10 11 9 8 8 9 10 10 11 14 15 14 14 15 16 17 18 19 20 21 21 22 22 22 22 22 22 23 24 23 21 19 21 22 21
26 26 26 26 26 27 26 24 22 21 20 19 18 17 17 17 17 16 16 16 16 16 15 13 12 11 11 10 10 9 8 8 9 8 8 10 13 15 14 13 13 14 16 17 19 20 20 21 22 23 24 25 24 24 24 24 24 25 23 21 23 24 21
27 27 27 26 26 27 27 25 24 22 21 19 18 18 17 17 17 15 15 15 15 15 13 11 10 10 10 9 8 6 5 8 10 8 7 10 13 15 15 13 13 15 17 19 20 22 22 22 23 24 25 26 26 25 25 25 25 26 25 24 24 26 25
27 27 27 26 27 27 27 25 24 22 20 19 18 18 18 18 17 16 15 15 14 13 12 10 9 9 9 8 6 4 5 8 9 8 7 9 13 15 16 15 15 16 17 20 21 22 23 24 24 25 26 28 27 26 25 25 26 26 27 26 25 28 31
28 28 28 27 27 26 26 25 23 22 20 19 19 19 19 19 18 17 15 15 14 12 11 9 8 8 8 6 5 6 7 9 9 8 7 8 10 14 16 16 16 17 18 20 22 23 25 25 24 26 28 28 27 26 25 26 28 28 29 29 28 30 34
29 29 28 27 27 26 26 24 23 22 20 19 18 18 18 19 19 18 16 14 14 12 10 8 7 7 7 6 5 7 8 9 8 8 6 5 6 10 14 15 16 17 19 20 21 24 25 24 24 26 27 27 27 26 26 28 29 29 29 30 31 32 34
29 29 28 27 27 26 26 25 24 22 20 19 18 17 16 16 18 18 16 14 13 13 10 8 7 6 6 6 6 6 9 10 10 8 5 3 2 7 12 14 15 17 19 20 21 23 23 21 24 27 26 27 28 27 28 30 29 27 29 30 31 33 33
29 29 29 28 28 27 26 25 24 22 21 21 19 16 15 15 16 16 16 14 13 13 12 10 9 8 7 7 7 8 9 11 12 10 8 5 4 5 9 12 14 16 18 20 21 23 22 21 24 26 24 26 28 28 30 32 29 28 30 31 32 34 34
30 30 30 29 28 27 26 25 24 22 22 21 18 16 16 16 15 15 15 14 13 13 12 12 11 10 10 9 9 9 9 9 10 9 8 8 7 7 8 11 14 15 17 19 21 22 22 23 26 25 23 25 29 29 31 33 31 31 32 33 34 35 35
31 31 31 30 29 28 26 25 24 23 22 20 18 18 18 18 16 14 13 13 12 12 11 11 10 11 11 11 10 10 9 8 8 9 9 8 7 8 9 11 14 14 15 18 21 21 21 22 26 26 23 24 28 29 31 32 32 33 34 34 36 36 36
32 32 31 31 30 28 25 23 24 24 23 21 20 20 19 18 16 14 12 11 11 11 11 10 9 9 10 11 11 11 11 10 10 10 9 8 8 10 12 14 15 14 15 18 20 21 21 20 23 26 24 23 27 29 30 31 31 32 33 34 35 36 37
32 31 31 30 29 27 24 24 25 25 24 22 20 19 17 15 15 14 12 11 10 10 10 9 7 7 8 10 10 11 12 12 11 9 8 8 10 12 14 15 15 15 16 18 19 21 21 19 21 24 23 23 25 27 28 30 31 32 33 34 35 36 37
31 31 30 29 28 27 26 24 24 23 23 21 19 18 17 15 15 14 12 11 9 9 8 7 6 5 6 8 9 10 11 11 10 9 8 9 11 13 14 14 13 14 16 17 19 20 20 19 21 22 22 22 24 26 27 28 30 32 33 33 34 35 37
32 31 30 29 29 28 27 25 23 22 22 21 20 19 18 17 16 15 13 12 9 7 6 5 5 4 5 7 9 10 10 10 9 8 9 10 11 12 13 13 12 14 16 17 18 19 19 20 21 21 21 23 25 25 26 28 30 31 32 33 33 34 36
32 31 31 30 29 28 27 26 24 22 21 21 20 19 19 19 18 17 15 13 10 7 5 4 4 5 7 9 10 10 9 8 8 8 8 10 11 11 12 12 11 13 16 17 18 18 18 20 22 21 22 24 25 26 27 28 30 31 31 32 33 33 35
Wind_Direction
136 130 127 127 125 123 118 111 106 99 92 87 81 76 72 71 72 72 71 73 72 66 65 69 70 66 60 59 59 65 67 64 64 66 62 57 52 49 48 54 59 60 55 44 35 10 327 296 322 338 344 346 352 1 0 0 1 358 358 6 8 2 356
136 134 132 129 127 125 116 108 103 97 89 82 77 70 66 66 69 76 78 77 77 76 76 78 74 65 60 61 68 72 72 70 68 68 66 63 58 56 54 55 55 54 51 42 33 25 11 330 326 334 337 340 345 352 355 358 357 355 358 2 4 3 355
138 136 135 131 127 124 115 107 102 94 87 82 80 77 75 76 78 83 84 82 82 80 79 77 69 65 67 72 75 77 75 71 68 66 66 64 62 63 62 59 55 50 44 35 28 24 17 360 336 324 334 337 334 334 345 354 352 351 357 358 358 360 355
142 139 134 129 127 123 115 107 100 93 91 89 89 86 83 82 84 84 84 84 84 80 77 72 69 73 78 80 80 78 74 70 67 67 67 64 64 65 64 61 58 53 48 40 30 26 22 5 342 325 334 335 325 323 335 345 348 349 352 355 356 355 351
145 142 135 130 128 123 115 108 102 99 97 94 90 85 80 79 82 84 85 87 85 82 79 75 77 84 84 83 81 76 72 70 68 65 64 63 66 66 63 61 59 55 51 46 39 34 29 18 10 353 339 340 327 319 331 339 344 346 349 354 353 350 347
147 143 137 133 129 124 116 109 105 103 99 94 89 83 79 81 85 87 88 89 88 86 85 82 85 88 85 83 80 75 73 71 67 66 69 70 70 67 63 61 58 55 50 46 41 37 32 26 20 4 344 345 331 317 329 337 340 340 345 351 348 346 347
146 142 138 134 129 122 114 109 108 105 99 94 90 85 84 89 92 92 92 92 91 90 89 88 89 88 85 83 81 78 76 72 69 72 76 75 71 66 63 60 56 53 49 44 42 39 34 28 22 9 351 344 333 323 327 333 340 340 337 343 345 346 347
144 139 135 132 127 120 114 112 110 105 100 96 93 90 91 97 99 98 96 95 94 93 91 91 91 89 87 85 84 83 80 75 74 76 76 71 66 62 59 58 56 52 48 46 45 43 39 33 25 18 8 354 338 332 328 327 339 342 335 338 342 348 348
141 137 132 129 124 119 117 116 112 106 103 102 101 100 98 101 104 102 99 97 97 95 93 93 92 90 89 88 87 85 81 77 75 74 71 66 62 59 57 57 58 54 49 47 46 43 41 38 31 24 18 12 355 338 332 328 336 339 338 342 342 342 345
138 135 132 128 122 119 118 118 114 108 108 110 111 110 107 107 108 106 103 101 99 97 96 94 92 92 91 88 87 85 81 76 73 70 66 63 61 60 59 58 58 55 48 45 43 40 37 34 31 27 23 19 8 351 338 327 328 332 337 342 340 335 339
136 133 131 127 124 123 121 118 116 114 116 120 120 118 116 114 113 111 108 105 102 99 98 96 93 92 91 88 85 83 78 74 72 70 65 62 61 61 59 57 54 50 44 39 35 31 30 27 25 25 25 23 16 7 350 324 318 331 336 337 336 335 337
135 133 130 129 129 127 123 121 123 124 126 128 127 126 122 119 117 116 113 109 106 103 101 99 95 91 88 85 83 79 75 73 74 74 69 62 59 58 56 52 47 43 38 34 30 26 25 25 23 24 27 28 23 13 359 338 310 323 334 331 330 334 337
136 136 136 136 133 128 126 128 130 132 132 132 132 130 125 122 120 119 118 115 110 106 104 101 97 93 89 85 81 78 77 80 81 78 72 63 57 55 51 48 43 39 34 32 30 29 30 29 28 30 31 30 29 23 9 357 329 321 331 331 327 331 337
136 136 136 134 130 128 130 133 134 134 134 133 134 131 126 124 124 126 125 121 113 108 106 102 98 97 94 89 83 81 85 89 86 79 71 63 57 54 49 45 42 37 35 34 34 35 36 35 34 36 36 32 30 25 11 356 342 331 332 335 330 330 335
134 132 131 131 131 132 134 135 136 135 131 129 131 129 123 123 127 132 131 124 115 109 105 102 100 99 97 92 87 87 90 91 85 76 69 61 57 54 48 43 42 38 37 37 36 37 39 38 38 39 37 33 24 16 6 350 340 336 334 335 333 332 336
137 135 133 134 135 135 135 136 138 135 129 126 123 119 118 118 121 128 132 127 119 112 107 103 101 100 98 94 91 91 91 87 80 72 65 60 58 54 47 44 43 41 40 39 37 38 40 38 37 36 31 24 14 7 4 354 341 332 329 329 331 333 335
143 141 137 136 136 136 136 136 136 133 128 123 118 115 114 113 113 120 129 128 120 113 109 106 103 101 99 95 94 94 90 83 75 67 62 62 60 54 47 47 46 42 40 39 36 36 37 35 32 30 25 19 13 6 3 358 345 333 322 320 326 333 335
144 142 139 138 137 138 138 137 135 132 127 122 119 116 113 109 108 113 122 126 121 114 110 108 105 103 102 99 97 95 92 84 74 65 63 63 62 54 47 47 47 43 39 36 33 31 31 30 27 24 20 15 11 6 2 357 349 339 329 321 323 332 336
145 144 143 141 140 141 140 138 134 130 126 123 119 115 110 106 105 109 117 123 121 115 112 111 108 105 103 101 98 97 94 83 73 67 66 67 65 54 44 45 47 42 36 32 28 25 24 24 23 21 17 13 8 3 359 356 351 344 337 331 328 331 336
147 146 146 145 144 143 141 138 133 127 126 122 117 112 108 104 103 106 114 120 120 117 114 113 111 108 104 101 99 101 97 86 76 73 73 73 70 53 43 44 46 41 35 28 22 20 19 19 20 19 16 11 7 0 354 352 350 345 340 336 335 334 333
148 148 146 144 143 142 140 137 132 128 125 118 112 108 105 105 104 106 113 118 119 120 117 114 112 110 108 104 102 104 103 96 87 84 84 81 71 54 45 45 45 40 34 28 21 17 15 13 13 14 13 9 4 357 350 346 343 340 338 334 334 334 333
150 149 148 146 144 142 141 137 132 128 122 114 109 106 103 103 104 108 113 116 119 121 118 113 111 112 114 111 105 103 107 114 106 94 93 87 69 56 50 47 45 40 34 29 24 18 14 11 8 5 5 3 359 353 347 341 337 334 332 330 331 332 332
151 150 149 148 147 145 143 139 135 127 119 112 108 106 104 102 103 107 112 116 119 119 116 112 112 116 118 115 109 100 101 124 130 108 96 87 69 59 54 50 46 38 29 24 20 15 13 11 8 4 2 359 356 351 344 339 335 331 327 325 326 328 329
153 150 148 147 148 148 146 142 136 128 119 112 107 105 103 101 101 105 110 115 116 115 113 111 114 122 124 120 117 107 99 122 137 126 101 84 69 60 54 51 46 34 23 18 14 9 8 8 6 4 3 2 359 355 348 340 334 331 327 322 321 324 324
154 151 148 145 146 148 147 143 137 131 123 115 107 103 101 99 100 104 110 114 114 113 113 114 120 130 132 129 130 126 110 122 137 139 113 86 69 57 49 43 40 31 20 15 10 6 4 2 2 2 2 2 2 1 358 351 342 336 330 323 320 322 322
157 155 151 147 146 147 147 144 140 135 128 120 111 102 100 99 99 102 108 113 116 117 116 119 129 137 138 135 130 123 110 114 131 142 118 86 66 52 41 33 31 26 17 11 7 5 2 358 358 360 0 2 3 5 6 2 356 349 341 332 324 323 325
158 157 155 152 148 147 147 146 143 140 135 128 117 107 102 100 98 99 104 109 117 123 121 123 137 144 145 139 117 106 105 108 125 137 118 86 64 44 30 24 21 15 11 8 5 3 1 358 356 357 0 6 8 9 9 5 1 358 352 344 334 329 332
158 157 157 157 154 150 148 147 146 145 141 135 126 115 107 101 97 97 99 103 112 117 121 132 150 157 157 152 129 110 104 104 121 139 133 100 63 33 18 17 14 6 4 6 6 5 2 358 358 360 4 11 12 10 8 5 1 358 355 351 344 338 338
160 159 160 160 159 155 151 148 147 148 146 140 133 126 118 107 100 96 95 99 103 106 112 128 146 156 160 164 157 131 111 103 106 118 125 115 42 11 8 10 7 0 1 5 9 10 7 1 1 4 9 13 13 10 6 3 0 359 357 355 352 347 344
163 163 163 162 161 160 157 153 151 150 148 145 139 136 131 119 108 100 96 96 98 101 104 107 112 119 123 138 153 146 128 112 101 97 94 84 54 18 11 8 1 358 1 8 13 15 14 9 6 8 11 13 11 8 4 0 360 1 1 359 357 354 351
167 165 165 164 162 161 160 158 158 156 152 148 144 141 137 128 118 108 99 95 95 100 103 100 99 99 100 110 125 133 134 124 108 95 87 83 69 41 21 9 3 1 5 12 18 21 21 17 13 13 14 13 10 5 1 0 359 0 1 0 359 357 355
166 165 165 165 162 160 158 159 162 162 158 152 145 139 135 131 127 120 109 100 95 98 102 100 95 92 93 99 106 116 130 129 110 94 86 82 64 34 21 14 12 11 12 17 22 24 22 18 15 14 14 13 10 4 360 0 360 358 357 356 355 354 354
167 168 168 167 163 161 160 159 160 159 156 149 141 136 134 132 132 132 126 112 100 95 94 94 94 91 92 98 102 107 116 114 101 92 82 65 40 26 24 24 24 24 21 21 24 23 19 15 14 14 14 14 10 3 359 1 2 359 356 353 352 352 352
172 173 170 167 164 163 162 158 154 151 149 147 145 145 144 141 141 142 139 127 111 97 86 83 91 97 96 101 105 106 106 103 94 85 72 49 32 26 25 26 28 30 26 22 22 22 19 17 16 15 15 14 9 3 1 2 3 2 359 355 354 354 353
174 172 169 167 166 166 164 159 154 150 150 151 152 154 155 156 157 157 152 141 123 104 89 77 77 96 104 107 111 108 102 97 89 77 62 45 34 28 25 23 24 27 27 23 22 23 22 19 19 18 15 11 6 4 5 5 5 4 1 357 355 354 353
173 171 170 170 170 169 168 164 159 156 157 159 160 162 165 168 170 169 162 150 134 116 98 78 70 92 112 114 115 110 100 90 80 66 51 39 33 30 26 24 24 27 28 24 22 25 25 22 21 20 15 10 7 7 9 9 8 5 1 359 356 353 352
174 172 172 173 173 172 171 169 165 165 167 169 170 172 175 176 177 177 170 158 149 140 120 94 87 105 118 119 116 109 99 88 74 61 50 39 35 31 26 24 26 28 28 25 23 25 26 23 22 21 16 12 11 11 11 10 8 5 1 359 357 352 351